Weather History for Darlington, SC

Change the Weather History Date:

Sunday, October 21, 2012

  Actual Average (KFLO) Record (KFLO)
Temperature  
Mean Temperature 58 °F 63 °F  
Max Temperature 71 °F 74 °F 86 °F (1993)
Min Temperature 44 °F 51 °F 32 °F (1952)
Degree Days  
Heating Degree Days 8 4  
Month to date heating degree days 53  
Since 1 July heating degree days 62  
Cooling Degree Days 0 2  
Month to date cooling degree days 70  
Year to date cooling degree days 2026  
Growing Degree Days 8 (Base 50)    
Moisture  
Dew Point 43 °F    
Average Humidity 66    
Maximum Humidity 93    
Minimum Humidity 35    
Precipitation  
Precipitation 0.00 in 0.09 in 1.05 in (1959)
Month to date precipitation 2.23  
Year to date precipitation 36.38  
Sea Level Pressure  
Sea Level Pressure 30.10 in    
Wind  
Wind Speed 5 mph (North)    
Max Wind Speed 10 mph    
Max Gust Speed -    
Visibility 10 miles    
Events      
T = Trace of Precipitation, MM = Missing Value Source: NWS Daily Summary

Daily Weather History Graph

Daily Weather History Graph

Search for Another Location

Airport:

Trip Planner

Search our weather history database for the weather conditions in past years. The results will help you decide how hot, cold, wet, or windy it might be!

Date:

Astronomy

Oct. 21, 2012 Rise Set
Actual Time 7:30 AM EDT 6:37 PM EDT
Civil Twilight 7:04 AM EDT 7:02 PM EDT
Nautical Twilight 6:35 AM EDT 7:32 PM EDT
Astronomical Twilight 6:06 AM EDT 8:01 PM EDT
Moon 1:45 PM EDT (10/21) No Moon Set
Length of Visible Light 11h 57m
Length of Day
11h 06m
Waxing Crescent, 45% of the Moon is Illuminated
Oct 21
Waxing Crescent
Oct 21
First Quarter
Oct 29
Full
Nov 6
Last Quarter
Nov 13
New

Hourly Weather History & Observations

Time (EDT) Temp. Windchill Dew Point Humidity Pressure Visibility Wind Dir Wind Speed Gust Speed Precip Events Conditions
12:15 AM 53.6 °F - 46.4 °F 77% 29.97 in 10.0 mi NNW 6.9 mph - N/A   Clear
12:35 AM 53.6 °F - 44.6 °F 72% 29.98 in 10.0 mi North 5.8 mph - N/A   Clear
12:55 AM 53.6 °F - 44.6 °F 72% 29.98 in 10.0 mi NNW 5.8 mph - N/A   Clear
1:15 AM 51.8 °F - 46.4 °F 82% 29.99 in 10.0 mi North 4.6 mph - N/A   Clear
1:35 AM 51.8 °F - 46.4 °F 82% 29.99 in 10.0 mi North 3.5 mph - N/A   Clear
1:55 AM 50.0 °F - 44.6 °F 82% 30.00 in 10.0 mi North 4.6 mph - N/A   Clear
2:15 AM 50.0 °F - 46.4 °F 87% 30.00 in 10.0 mi North 5.8 mph - N/A   Clear
2:35 AM 50.0 °F - 46.4 °F 87% 30.00 in 10.0 mi North 5.8 mph - N/A   Clear
2:55 AM 50.0 °F - 46.4 °F 87% 30.01 in 10.0 mi North 5.8 mph - N/A   Clear
3:15 AM 50.0 °F - 44.6 °F 82% 30.02 in 10.0 mi North 4.6 mph - N/A   Clear
3:35 AM 48.2 °F - 44.6 °F 87% 30.02 in 10.0 mi North 4.6 mph - N/A   Clear
3:55 AM 48.2 °F - 44.6 °F 87% 30.02 in 10.0 mi North 3.5 mph - N/A   Clear
4:15 AM 48.2 °F - 44.6 °F 87% 30.03 in 10.0 mi North 3.5 mph - N/A   Clear
4:35 AM 48.2 °F - 42.8 °F 82% 30.03 in 10.0 mi North 4.6 mph - N/A   Clear
4:55 AM 46.4 °F 45.2 °F 44.6 °F 93% 30.03 in 10.0 mi North 3.5 mph - N/A   Clear
5:15 AM 46.4 °F 45.2 °F 41.0 °F 81% 30.04 in 10.0 mi North 3.5 mph - N/A   Clear
5:35 AM 46.4 °F 45.2 °F 41.0 °F 81% 30.05 in 10.0 mi NNW 3.5 mph - N/A   Clear
5:55 AM 46.4 °F 44.3 °F 41.0 °F 81% 30.06 in 10.0 mi NNW 4.6 mph - N/A   Clear
6:15 AM 46.4 °F 44.3 °F 41.0 °F 81% 30.07 in 5.0 mi North 4.6 mph - N/A   Clear
6:35 AM 46.4 °F 44.3 °F 41.0 °F 81% 30.08 in 9.0 mi North 4.6 mph - N/A   Clear
6:55 AM 46.4 °F 44.3 °F 39.2 °F 76% 30.08 in 10.0 mi North 4.6 mph - N/A   Clear
7:15 AM 44.6 °F - 39.2 °F 81% 30.09 in 10.0 mi Calm Calm - N/A   Clear
7:35 AM 44.6 °F - 39.2 °F 81% 30.10 in 10.0 mi Calm Calm - N/A   Clear
7:55 AM 46.4 °F - 41.0 °F 81% 30.10 in 9.0 mi Calm Calm - N/A   Clear
8:15 AM 46.4 °F - 44.6 °F 93% 30.11 in 10.0 mi Calm Calm - N/A   Clear
8:35 AM 50.0 °F - 44.6 °F 82% 30.12 in 9.0 mi North 4.6 mph - N/A   Clear
8:55 AM 51.8 °F - 44.6 °F 76% 30.13 in 10.0 mi North 5.8 mph - N/A   Clear
9:15 AM 53.6 °F - 44.6 °F 72% 30.14 in 7.0 mi NNE 8.1 mph - N/A   Clear
9:35 AM 55.4 °F - 44.6 °F 67% 30.15 in 10.0 mi NNE 5.8 mph - N/A   Clear
9:55 AM 57.2 °F - 44.6 °F 63% 30.15 in 10.0 mi North 8.1 mph - N/A   Clear
10:15 AM 60.8 °F - 44.6 °F 55% 30.15 in 10.0 mi North 8.1 mph - N/A   Clear
10:35 AM 62.6 °F - 42.8 °F 48% 30.15 in 10.0 mi NNE 6.9 mph - N/A   Clear
10:55 AM 62.6 °F - 42.8 °F 48% 30.16 in 10.0 mi North 9.2 mph - N/A   Clear
11:15 AM 64.4 °F - 42.8 °F 45% 30.16 in 10.0 mi NNE 5.8 mph - N/A   Clear
11:35 AM 64.4 °F - 42.8 °F 45% 30.16 in 10.0 mi North 8.1 mph - N/A   Clear
11:55 AM 66.2 °F - 41.0 °F 40% 30.16 in 10.0 mi North 8.1 mph - N/A   Clear
12:15 PM 66.2 °F - 42.8 °F 43% 30.16 in 10.0 mi NNE 5.8 mph - N/A   Clear
12:35 PM 68.0 °F - 41.0 °F 37% 30.15 in 10.0 mi NNW 8.1 mph - N/A   Clear
12:55 PM 69.8 °F - 42.8 °F 38% 30.15 in 10.0 mi NNE 8.1 mph - N/A   Clear
1:15 PM 68.0 °F - 41.0 °F 37% 30.14 in 10.0 mi North 10.4 mph - N/A   Clear
1:35 PM 69.8 °F - 42.8 °F 38% 30.14 in 10.0 mi North 4.6 mph - N/A   Clear
1:55 PM 69.8 °F - 44.6 °F 40% 30.13 in 10.0 mi Calm Calm - N/A   Clear
2:15 PM 69.8 °F - 42.8 °F 38% 30.12 in 10.0 mi NNW 6.9 mph - N/A   Clear
2:35 PM 69.8 °F - 42.8 °F 38% 30.11 in 10.0 mi WNW 8.1 mph - N/A   Clear
2:55 PM 69.8 °F - 42.8 °F 38% 30.11 in 10.0 mi North 8.1 mph - N/A   Clear
3:15 PM 69.8 °F - 42.8 °F 38% 30.10 in 10.0 mi West 5.8 mph - N/A   Clear
3:35 PM 69.8 °F - 42.8 °F 38% 30.10 in 10.0 mi Calm Calm - N/A   Clear
3:55 PM 71.6 °F - 42.8 °F 35% 30.10 in 8.0 mi NW 8.1 mph - N/A   Clear
4:15 PM 69.8 °F - 42.8 °F 38% 30.10 in 10.0 mi NW 6.9 mph - N/A   Clear
4:35 PM 69.8 °F - 42.8 °F 38% 30.10 in 10.0 mi NNW 6.9 mph - N/A   Clear
4:55 PM 69.8 °F - 42.8 °F 38% 30.10 in 10.0 mi WNW 6.9 mph - N/A   Clear
5:15 PM 69.8 °F - 41.0 °F 35% 30.10 in 10.0 mi NNW 4.6 mph - N/A   Clear
5:35 PM 69.8 °F - 42.8 °F 38% 30.11 in 10.0 mi NNW 4.6 mph - N/A   Clear
5:55 PM 68.0 °F - 41.0 °F 37% 30.12 in 10.0 mi NNW 6.9 mph - N/A   Clear
6:15 PM 66.2 °F - 42.8 °F 43% 30.13 in 10.0 mi NNW 4.6 mph - N/A   Clear
6:35 PM 62.6 °F - 42.8 °F 48% 30.13 in 10.0 mi NNW 3.5 mph - N/A   Clear
6:55 PM 57.2 °F - 46.4 °F 67% 30.13 in 10.0 mi Calm Calm - N/A   Clear
7:15 PM 55.4 °F - 46.4 °F 72% 30.14 in 10.0 mi Calm Calm - N/A   Clear
7:35 PM 55.4 °F - 44.6 °F 67% 30.14 in 10.0 mi Calm Calm - N/A   Clear
7:55 PM 51.8 °F - 44.6 °F 76% 30.14 in 10.0 mi Calm Calm - N/A   Clear
8:15 PM 51.8 °F - 44.6 °F 76% 30.14 in 10.0 mi NNW 3.5 mph - N/A   Clear
8:35 PM 51.8 °F - 44.6 °F 76% 30.14 in 10.0 mi Calm Calm - N/A   Clear
8:55 PM 51.8 °F - 44.6 °F 76% 30.14 in 10.0 mi Calm Calm - N/A   Clear
9:15 PM 50.0 °F - 44.6 °F 82% 30.15 in 10.0 mi Calm Calm - N/A   Clear
9:35 PM 48.2 °F - 44.6 °F 87% 30.15 in 10.0 mi Calm Calm - N/A   Clear
9:55 PM 48.2 °F - 42.8 °F 82% 30.15 in 10.0 mi Calm Calm - N/A   Clear
10:15 PM 48.2 °F - 42.8 °F 82% 30.16 in 10.0 mi Calm Calm - N/A   Clear
10:35 PM 48.2 °F - 42.8 °F 82% 30.16 in 10.0 mi Calm Calm - N/A   Clear
10:55 PM 48.2 °F - 42.8 °F 82% 30.16 in 10.0 mi Calm Calm - N/A   Clear
11:15 PM 48.2 °F - 42.8 °F 82% 30.16 in 10.0 mi Calm Calm - N/A   Clear
11:35 PM 46.4 °F - 42.8 °F 87% 30.16 in 10.0 mi Calm Calm - N/A   Clear
11:55 PM 46.4 °F - 42.8 °F 87% 30.16 in 10.0 mi Calm Calm - N/A   Clear